Weather History for Crestview, FL

Change the Weather History Date:

Thursday, November 10, 2011

  Actual Average Record
Temperature  
Mean Temperature 51 °F -  
Max Temperature 57 °F - - ()
Min Temperature 43 °F - - ()
Degree Days  
Heating Degree Days 14    
Growing Degree Days 1 (Base 50)    
Moisture  
Dew Point 44 °F    
Average Humidity 75    
Maximum Humidity 96    
Minimum Humidity 43    
Precipitation  
Precipitation 0.00 in - - ()
Sea Level Pressure  
Sea Level Pressure 30.08 in    
Wind  
Wind Speed 10 mph (NNW)    
Max Wind Speed 20 mph    
Max Gust Speed 28 mph    
Visibility 10 miles    
Events Rain    
T = Trace of Precipitation, MM = Missing Value Source: NWS Daily Summary

Daily Weather History Graph

Daily Weather History Graph

Search for Another Location

Airport:

Trip Planner

Search our weather history database for the weather conditions in past years. The results will help you decide how hot, cold, wet, or windy it might be!

Date:

Astronomy

Nov. 10, 2011 Rise Set
Actual Time 6:07 AM CST 4:51 PM CST
Civil Twilight 5:42 AM CST 5:16 PM CST
Nautical Twilight 5:13 AM CST 5:45 PM CST
Astronomical Twilight 4:45 AM CST 6:14 PM CST
Moon 4:43 PM CST (11/10) 5:56 AM CST (11/10)
Length of Visible Light 11h 34m
Length of Day
10h 43m
Full, 100% of the Moon is Illuminated
Nov 10
Full
Nov 10
Full
Nov 18
Last Quarter
Nov 25
New
Dec 2
First Quarter

Hourly Weather History & Observations

Time (CST) Temp. Windchill Dew Point Humidity Pressure Visibility Wind Dir Wind Speed Gust Speed Precip Events Conditions
12:01 AM 57.2 °F - 55.4 °F 94% 30.04 in 10.0 mi NNW 8.1 mph - N/A Rain Light Rain
12:07 AM 57.2 °F - 55.4 °F 94% 30.04 in 10.0 mi North 8.1 mph - N/A   Overcast
12:28 AM 57.2 °F - 55.4 °F 94% 30.03 in 10.0 mi North 10.4 mph - N/A   Overcast
12:55 AM 56.3 °F - 55.0 °F 96% 30.02 in 10.0 mi North 6.9 mph - 0.00 in   Overcast
1:14 AM 57.2 °F - 55.4 °F 94% 30.01 in 10.0 mi NNW 8.1 mph - N/A   Overcast
1:17 AM 57.2 °F - 55.4 °F 94% 30.01 in 10.0 mi North 8.1 mph - N/A   Overcast
1:33 AM 57.2 °F - 55.4 °F 94% 30.02 in 10.0 mi NW 8.1 mph - N/A   Overcast
1:41 AM 57.2 °F - 55.4 °F 94% 30.02 in 10.0 mi NW 8.1 mph - N/A   Overcast
1:55 AM 56.7 °F - 55.2 °F 95% 30.02 in 10.0 mi NNW 9.2 mph - N/A   Overcast
1:56 AM 57.2 °F - 55.4 °F 94% 30.02 in 10.0 mi NW 10.4 mph - N/A   Overcast
1:58 AM 57.2 °F - 55.4 °F 94% 30.02 in 10.0 mi NNW 8.1 mph - N/A   Overcast
2:10 AM 57.2 °F - 55.4 °F 94% 30.02 in 10.0 mi NNW 13.8 mph 18.4 mph N/A   Overcast
2:21 AM 55.4 °F - 53.6 °F 94% 30.03 in 10.0 mi NNW 15.0 mph - N/A   Overcast
2:22 AM 55.4 °F - 53.6 °F 94% 30.03 in 10.0 mi NNW 13.8 mph - N/A   Overcast
2:55 AM 54.7 °F - 51.4 °F 89% 30.04 in 10.0 mi NW 16.1 mph 20.7 mph N/A   Overcast
3:32 AM 53.6 °F - 50.0 °F 88% 30.04 in 10.0 mi NNW 12.7 mph - N/A   Overcast
3:55 AM 52.3 °F - 48.2 °F 86% 30.03 in 10.0 mi NNW 12.7 mph - N/A   Mostly Cloudy
3:56 AM 51.8 °F - 48.2 °F 88% 30.02 in 10.0 mi NNW 13.8 mph - N/A   Scattered Clouds
4:55 AM 50.4 °F - 45.7 °F 84% 30.06 in 10.0 mi NNW 12.7 mph - N/A   Partly Cloudy
5:55 AM 48.6 °F - 43.7 °F 83% 30.07 in 10.0 mi NNW 12.7 mph - N/A   Clear
6:55 AM 48.4 °F - 42.4 °F 80% 30.10 in 10.0 mi NNW 13.8 mph - N/A   Partly Cloudy
7:55 AM 48.9 °F - 41.5 °F 76% 30.12 in 10.0 mi NNW 19.6 mph - N/A   Clear
8:55 AM 50.2 °F - 40.5 °F 69% 30.12 in 10.0 mi NNW 13.8 mph 21.9 mph N/A   Overcast
9:55 AM 51.3 °F - 39.2 °F 63% 30.14 in 10.0 mi NNW 16.1 mph 23.0 mph N/A   Mostly Cloudy
10:55 AM 50.7 °F - 38.5 °F 63% 30.08 in 10.0 mi NNW 15.0 mph 27.6 mph N/A   Overcast
11:55 AM 53.1 °F - 37.2 °F 55% 30.11 in 10.0 mi NNW 11.5 mph 18.4 mph N/A   Overcast
12:55 PM 52.7 °F - 33.1 °F 47% 30.09 in 10.0 mi NNW 15.0 mph 21.9 mph N/A   Overcast
1:55 PM 53.8 °F - 32.7 °F 45% 30.09 in 10.0 mi NNW 15.0 mph 23.0 mph N/A   Overcast
2:55 PM 55.2 °F - 32.9 °F 43% 30.08 in 10.0 mi NNW 13.8 mph 23.0 mph N/A   Mostly Cloudy
3:55 PM 55.8 °F - 33.4 °F 43% 30.10 in 10.0 mi NNW 12.7 mph - N/A   Scattered Clouds
4:55 PM 52.2 °F - 36.1 °F 54% 30.10 in 10.0 mi NW 5.8 mph - N/A   Scattered Clouds
5:55 PM 49.1 °F - 36.5 °F 62% 30.12 in 10.0 mi NW 6.9 mph - N/A   Scattered Clouds
6:55 PM 48.4 °F - 34.9 °F 60% 30.14 in 10.0 mi NW 9.2 mph - N/A   Partly Cloudy
7:55 PM 46.8 °F - 32.7 °F 58% 30.17 in 10.0 mi NW 6.9 mph - N/A   Clear
8:55 PM 45.9 °F 41.2 °F 30.6 °F 55% 30.20 in 10.0 mi NW 9.2 mph - N/A   Clear
9:55 PM 45.5 °F 40.8 °F 28.6 °F 52% 30.21 in 10.0 mi NW 9.2 mph - N/A   Clear
10:55 PM 45.0 °F 40.6 °F 26.6 °F 49% 30.20 in 10.0 mi NNW 8.1 mph - N/A   Clear
11:55 PM 43.5 °F 37.9 °F 26.1 °F 50% 30.20 in 10.0 mi NW 10.4 mph - N/A   Clear